Location: La Coruña
(43.3623°N, 8.4115°W)
Time: 01:49:58
(UTC+01:00)

STARLINK-1089 - Pass Details

Date: 19 January 2020
Orbit: 348 x 351 km, 53.0° (Epoch: 17 February)

Event Time Altitude Azimuth Distance (km) Brightness Sun altitude
Rises 18:54:01 0° 235° (SW) 2,164 8.8 -5.2°
Reaches altitude 10° 18:56:01 10° 237° (WSW) 1,325 7.3 -5.5°
Maximum altitude 18:58:58 82° 323° (NW) 365 2.8 -6.0°
Drops below altitude 10° 19:01:57 10° 53° (NE) 1,336 5.0 -6.5°
Enters shadow 19:02:17 - 53° (NE) 1,472 5.2 -6.6°
